Погода в Черлаке

Погода в Черлаке : погода сейчас, прогноз погоды и архив. Всё, что Вы хотите узнать о погоде в Черлаке!

Хотите узнать прогноз погоды в Черлаке? Тогда Вам сюда: Погода в Черлаке

Поиск расширенной информации на нашем сайте:

Другие новости

Новости СМИ2

Главная страница сайта

Новости сайта

03.07.2017

Напоминаем, что на нашем специализированном сайте Метеоцентр.Азия вы можете получить высокодетализированные автоматические прогнозы погоды по пунктам России, СНГ и мира в авиационном формате (включающие направление и скорость ветра, видимость, явления погоды, количество и форму облачности, нижнюю и верхнюю границу облачности).

Рекомендуем: Лечебные камни и минералы магия драгоценных камней магические и лечебные.

Погода в Черлаке - сегодня

Время (UTC), дата Ветер
(°,м/с) 
Видим.   Явления Облачность Т
(°С)
Тd
(°С)
f(%) Тe
(°С)
Pmin
(гПа)
dP
(гПа)
Po
(мм)
O2
(г/м3)
Тmin Tmax R s Состояние
почвы
03 18.11.17 180 (Ю) 10 км  слаб. снег  10/10 300 м 
[Ns]
-0.4 -1.2 94 -3  1016.7  -1.9  752  303  -0.4    0.3  равномерный
мокрый или
старый снег
100% 
06 18.11.17 200 (Ю) н/о    н/о 
-0.3 -1.3 93 -3  1016  -1.7  751  303           
09 18.11.17 210 (ЮЗ) н/о    н/о 
+0.1 -0.5 96 -2  1014.2  -1.7  750  302           
12 18.11.17 250 (З) н/о    н/о 
+0.2 +0.2 100 -2  1014.1  -0.1  750  302           
15 18.11.17 330 (СЗ) 10 км  {снег}  4/4 300 м средняя 
[As op]
-1.1 -1.7 96 -3  1017.1  1.9  752  304    +0.2     
18 18.11.17 320 (СЗ) 10 км  {снег}  10/10 300 м 
[Frnb|Ns]
-1.3 -3.7 84 -3  1019.4  2.3  754  306           
21 18.11.17 300 (СЗ) 10 км    10/10 300 м 
[Ns]
-2.1 -4.7 82 -3  1021.7  2.2  755  307           
00 19.11.17 310 (СЗ) 10 км    10/10 600 м 
[Ns]
-2.7 -4.4 88 -5  1024.2  2.4  757  309           
03 19.11.17 290 (З) 20000 м    8/0 средняя 
[Ac trans]
-3.2 -5.4 85 -4  1026.6  2.3  759  310  -3.3      равномерный
мокрый или
старый снег
100% 
06 19.11.17 270 (З) н/о    н/о 
-3.3 -5.1 87 -4  1027.2  2.1  759  310           
09 19.11.17 250 (З) н/о    н/о 
-2.7 -3.7 93 -5  1028.1  760  310           
12 19.11.17 250 (З) н/о    н/о 
-1.8 -3.7 87 -4  1028.6  0.5  760  309           
15 19.11.17 270 (З) 4000 м  слаб. снег  10/5 300 м средняя 
[Frnb|Ac As]
-2 -3 93 -4  1029.7  0.2  761  309    -1.7  0.0     
18 19.11.17 280 (З) н/о    н/о 
-2 -2.8 94 -4  1029.9  0.4  761  309           
21 19.11.17 280 (З) н/о    н/о 
-4.1 -4.6 96 -5  1031.2  1.1  762  312           
00 20.11.17 310 (СЗ) н/о    н/о 
-2.6 -3 97 -2  1032.3  1.1  763  311           
03 20.11.17 240 (ЮЗ) 10 км  слаб. снег  10/5 300 м средняя 
[Frnb|Ac As]
-1.4 -2.1 95 -1  1033  0.4  764  310  -5.2    0.0  равномерный
сухой снег
100% 
06 20.11.17 270 (З) 20000 м  в посл. час снег  10/0 средняя, верхняя 
[Ac As|Cc]
-0.3 -2.3 86 -2  1033.7  0.7  764  309           
09 20.11.17 270 (З) н/о    н/о 
+1 -2.1 80 -1  1033.7  0.6  764  307           
12 20.11.17 230 (ЮЗ) 10 км  в посл. час ливневой снег  10/3 600 м кучево-дожд., средняя 
[Cb cap|Ac As]
-0.7 -1.9 92 -3  1034.1  0.2  764  309           
15 20.11.17 250 (З) н/о    н/о 
-0.6 -2 90 -2  1034  0.1  764  309           
18 20.11.17 250 (З) н/о    н/о 
-0.5 -2.9 84 -3  1034.1  764  309           
21 20.11.17 250 (З) н/о    н/о 
-2.4 -4.1 88 -5  1033.8  -0.4  764  311           
00 21.11.17 260 (З) 10 км    10/0 средняя 
[Ac As]
-2.8 -4.5 88 -6  1033.5  764  312           
03 21.11.17 240 (ЮЗ) 20000 м    10/0 средняя 
[Ac As]
-4 -5.1 92 -6  1033.8  0.2  764  313  -4.9      равномерный
мокрый или
старый снег
100% 
Время (UTC), дата Ветер
(°,м/с) 
Видим.   Явления Облачность Т
(°С)
Тd
(°С)
f(%) Тe
(°С)
Pmin
(гПа)
dP
(гПа)
Po
(мм)
O2
(г/м3)
Тmin Tmax R s Состояние
почвы

Для получения пояснительной информации подведите курсор к названию столбца.

ПОГОДА в Черлаке - архив

Всё, что Вы хотите узнать о погоде в Черлаке - удобно и подробно!

Выберите нужную дату (начиная с 1 января 2015* года) и нажмите кнопку "Найти".
Будут отображены архивные сводки погоды по пункту Черлак, начиная с указанной даты.


Отображать данные в формате CSV (для использования в таблицах Excel)


Внимание! Наш архив погоды предназначен исключительно для личного некоммерческого использования в познавательных целях. Если Вам необходимы официальные справки о состоянии погоды (для производственных, юридических, коммерческих и т.п. целей), обращайтесь в органы Росгидромета.

*Примечание: данная дата относится к архиву по метеостанциям СССР (Россия, СНГ, Балтия).
Архив по метеостанциям Зарубежной Европы и Азии (кроме Китая) хранится 10 дней, по другим регионам земного шара (Китай, Африка, Америка, Австралия, Океания) - 1 день.

Черлак - район местоположения метеостанции


Название, широта, долгота, высота метеостанции:
Черлак 54.2°ш. 74.8°д. 115 м над ур. моря [Российская Федерация]

Дополнительная информация

В oтличие oт бoльшинства пoгoдных сайтoв мы публикуем пoдрoбную метеoинфoрмацию в детальнoм прoфессиoнальнoм фoрмате.

Характеристики температуры и влажнoсти вoздуха измеряются на высoте 2 м в тени вдали oт зданий и деревьев.
Скoрoсть ветра измеряется на высoте 10 м (на урoвне рoста челoвека скoрoсть ветра ниже в 1.5-2 раза). Если метеoстанция нахoдится в гoрoде или в лесу, тo скoрoсть ветра занижена на 2-4 м/с пo сравнению с oткрытым местoм. Скoрoсть ветра над акватoриями крупных рек и oзёр, а также на вершинах хoлмoв на 2-5 м/с выше, чем в oбычных услoвиях.
Атмoсфернoе давление в разных тoчках местнoсти мoжет значительнo oтличаться oт давления на метеoстанции, в зависимoсти oт услoвий рельефа (при пoдъёме на 10 м давление пoнижается примернo на 1 мм рт.ст.).